Theta_e
299 299 300 300 299 299 300 300 300 299 299 299 298 299 299 299 300 300 300 299 299 298 298 297 298 298 297 297 296 296 296 296 296 295 294 294 294 294 294 294 293 293 293 293 294 293 292 292 292 292 293 292 292 292 292 292 292 291 291 291 290 291 290 289 287 288 291 293 293 293 294 294 293 294 293 294 295 293 291 292 293 293 292 292 292
300 300 300 300 299 299 300 300 300 299 298 298 298 298 299 299 300 299 299 299 299 298 298 298 298 298 297 297 297 296 296 296 296 295 294 294 294 294 294 293 293 293 293 292 293 293 292 292 292 292 293 292 292 291 292 292 291 291 290 290 290 290 291 289 288 287 287 291 292 293 292 294 291 294 293 292 293 295 293 293 293 293 293 293 293
300 300 300 299 299 299 299 299 299 299 298 298 298 298 298 299 299 299 299 299 299 298 298 298 298 297 297 297 296 296 296 296 296 295 295 294 294 294 294 293 293 293 292 293 293 293 292 292 292 292 293 291 291 291 292 291 292 291 290 290 290 290 291 291 289 287 288 289 291 291 292 292 291 291 293 293 293 294 294 293 293 294 293 293 293
299 298 298 298 298 298 298 299 299 298 298 298 298 299 299 299 299 298 298 298 298 299 298 298 297 297 296 296 296 296 296 296 295 295 295 294 294 294 294 294 293 293 293 293 293 293 292 292 292 292 292 291 291 291 291 291 291 291 290 291 290 290 290 291 290 288 288 287 290 290 292 291 292 292 292 293 293 293 293 293 294 293 294 293 292
298 298 298 298 298 298 298 298 298 298 298 299 299 299 299 299 299 298 298 298 298 298 298 297 297 296 296 296 296 296 296 296 295 295 295 295 294 294 294 294 294 293 293 293 292 293 293 292 292 293 292 291 291 291 291 291 291 290 290 290 290 290 290 290 290 290 288 287 288 290 291 291 292 292 292 291 291 291 292 291 292 292 293 293 293
297 297 297 297 297 298 298 298 298 298 298 299 299 299 299 299 299 299 298 298 298 298 298 298 296 296 296 296 296 296 297 296 295 295 295 295 294 294 294 294 294 293 293 293 293 293 293 293 293 293 292 291 291 291 292 291 291 290 290 290 290 290 290 290 289 289 288 287 287 288 290 289 290 290 291 291 290 289 290 290 291 291 291 291 292
297 297 297 297 297 298 298 299 299 299 299 299 299 299 299 299 299 298 298 298 298 298 298 297 297 296 296 297 296 296 296 296 296 295 295 295 294 293 293 293 293 293 293 293 293 293 293 293 293 293 292 292 292 292 292 291 291 291 291 290 290 290 289 289 289 288 287 287 287 288 288 289 290 289 291 292 291 290 288 289 289 290 290 290 290
296 296 296 296 296 297 298 299 299 299 299 299 299 298 298 298 298 298 298 297 297 297 297 297 297 297 296 296 296 296 296 296 296 295 295 295 294 294 293 293 293 293 293 293 293 292 292 292 292 293 293 293 292 292 292 291 292 291 291 291 290 289 289 289 288 288 287 287 286 287 288 288 288 290 290 290 288 288 288 288 287 288 290 290 290
296 296 296 296 297 298 299 299 299 299 298 298 297 298 298 298 298 298 297 297 297 297 297 297 297 297 296 296 296 296 295 295 296 295 295 295 294 294 294 293 293 293 293 292 292 292 292 292 292 293 292 290 290 290 291 290 292 291 291 291 290 289 289 289 288 288 287 287 287 287 287 287 288 288 287 287 286 286 289 288 287 288 289 289 290
295 295 296 296 298 299 299 298 298 298 298 297 297 297 297 297 297 297 296 296 296 296 296 296 296 296 296 296 296 295 295 295 293 291 292 295 295 294 294 294 294 293 293 292 292 292 292 292 292 289 288 288 288 288 289 289 289 290 292 292 290 289 289 288 288 288 287 286 286 287 286 286 287 288 288 288 289 289 288 288 287 288 288 287 289
295 295 295 297 298 298 297 297 297 297 297 297 297 297 297 297 296 296 296 296 295 295 295 295 295 295 295 295 295 295 295 295 291 292 292 292 293 295 294 294 294 293 293 292 293 293 293 293 293 291 289 287 288 287 288 288 288 288 288 289 290 290 289 288 288 288 287 287 287 287 287 286 288 289 288 289 289 289 288 288 288 288 286 285 285
295 296 296 297 297 297 297 297 296 296 297 296 296 296 296 295 295 295 295 295 295 295 294 294 294 294 295 294 294 295 295 292 292 292 292 292 291 293 294 294 294 293 293 293 293 293 293 294 293 293 292 292 291 290 288 287 287 288 288 288 288 288 289 289 289 288 288 287 287 287 287 287 288 289 288 288 288 288 289 288 288 287 286 285 286
296 296 296 296 296 297 296 296 296 296 296 296 296 296 295 295 294 294 294 295 295 294 294 294 294 294 294 293 293 294 294 292 292 292 292 292 292 291 293 294 294 294 294 293 293 293 293 293 293 293 293 288 289 291 291 290 287 287 287 287 287 288 289 289 289 289 290 289 288 287 288 288 288 288 289 289 290 288 288 287 287 287 287 286 286
295 295 296 296 296 296 296 296 295 295 296 296 296 295 295 294 295 295 295 294 294 294 294 294 294 294 293 293 293 294 294 292 292 292 292 291 292 291 293 293 294 294 294 294 294 293 293 293 293 293 293 293 291 291 291 290 290 289 288 288 289 288 288 288 288 287 288 288 288 287 289 290 288 289 291 290 289 287 287 287 288 287 286 286 288
295 295 295 295 296 296 296 295 295 295 295 295 295 294 294 294 294 294 294 294 294 294 294 294 294 294 294 293 293 293 294 291 292 292 292 292 292 291 293 293 294 294 294 294 294 294 294 294 294 294 294 293 293 291 291 290 290 290 290 289 289 289 290 289 289 289 289 288 288 288 289 290 290 290 291 291 290 290 289 289 289 288 288 289 289
294 295 294 295 295 295 295 295 295 295 295 295 294 294 294 294 294 294 294 294 294 294 293 293 293 293 294 293 293 292 293 291 291 291 291 292 292 292 292 293 293 294 294 294 294 294 294 294 294 293 294 294 291 290 290 291 290 289 289 289 289 290 290 290 290 290 290 290 290 289 290 290 290 291 291 290 290 290 290 289 289 288 287 285 285
295 295 295 295 295 295 295 295 295 295 295 294 294 294 294 294 294 294 293 293 293 293 293 293 293 293 293 293 293 292 293 292 291 291 291 291 291 292 292 292 293 293 293 294 294 294 294 294 294 294 293 293 292 291 291 289 290 289 289 289 289 289 289 290 290 290 290 290 290 291 291 291 291 291 291 291 290 290 289 286 285 286 284 283 284
295 296 296 296 296 296 296 295 295 294 294 294 294 294 294 294 294 294 293 293 293 293 293 293 294 293 293 292 293 292 293 292 290 291 291 291 290 292 292 292 292 293 293 294 294 294 293 289 290 293 293 293 291 291 291 289 289 289 289 289 288 288 288 289 289 289 289 289 289 289 290 290 290 291 291 291 291 290 287 284 286 286 284 284 283
295 295 296 296 296 296 295 295 294 294 294 294 294 294 294 294 294 294 294 294 293 293 293 293 293 293 293 293 289 290 292 291 290 290 290 290 290 291 291 292 292 292 292 293 293 293 293 290 288 289 291 292 291 291 291 289 289 289 289 289 288 287 288 289 288 288 288 288 288 288 287 288 288 289 289 289 290 289 289 288 288 286 284 284 284
295 296 295 295 295 295 295 294 294 293 293 293 294 293 294 293 293 293 293 293 293 293 292 292 291 292 293 292 292 292 291 292 291 290 290 290 290 291 292 291 291 291 292 292 292 292 292 292 291 289 290 290 290 291 290 290 290 290 290 289 288 287 290 290 290 289 288 288 288 287 287 288 288 288 288 289 289 289 289 289 288 287 286 285 285
295 295 295 294 294 294 294 294 293 293 294 293 293 292 292 292 292 292 291 292 292 291 291 291 291 291 291 292 291 292 292 291 291 290 290 290 290 290 291 291 291 292 292 291 292 292 292 292 292 290 290 290 290 290 290 290 289 290 290 289 289 289 290 289 288 286 288 288 287 287 287 288 288 288 288 288 288 289 289 289 289 289 287 286 285
294 294 293 293 293 293 293 293 293 293 293 293 292 292 292 292 292 291 291 291 290 290 290 290 290 290 291 291 291 291 290 289 291 289 289 290 290 290 290 291 291 292 291 291 292 292 292 292 293 291 290 289 289 289 290 290 289 289 289 290 290 290 289 288 288 287 287 287 287 287 287 287 287 287 287 287 288 288 289 289 289 289 289 288 287
293 293 292 292 292 292 292 292 292 293 292 292 291 291 291 291 291 291 290 290 289 289 289 290 289 289 290 291 291 291 291 291 288 289 288 289 290 290 290 290 290 291 291 290 291 292 293 293 292 289 289 289 289 289 290 289 289 289 289 289 289 289 288 288 287 287 287 286 286 285 286 286 286 286 286 286 287 288 288 288 289 289 288 288 289
292 291 291 291 291 291 291 291 292 292 291 291 290 290 290 290 290 290 290 289 289 288 289 289 289 289 289 289 291 291 292 292 289 288 288 288 289 290 290 290 290 290 291 291 291 292 292 292 292 290 289 289 289 289 289 289 288 289 289 289 288 288 288 287 287 286 286 286 285 285 285 286 286 286 286 287 287 288 288 288 288 288 288 288 287
290 289 290 290 289 290 290 291 291 290 290 290 289 289 289 289 289 290 289 289 289 288 289 289 288 288 289 289 290 291 292 291 292 290 287 287 288 289 289 289 290 290 289 290 290 291 290 290 290 289 289 289 289 288 288 288 288 288 288 288 287 287 287 286 286 286 285 285 285 285 286 286 287 287 288 288 288 288 287 286 286 287 287 287 287
288 288 288 289 289 289 288 289 289 289 289 290 290 290 289 289 289 289 290 289 289 289 289 289 288 288 288 289 289 290 291 291 291 291 289 288 287 288 288 288 287 287 287 289 288 288 289 289 288 288 288 288 288 287 287 287 287 287 287 287 287 287 287 286 286 286 285 285 285 285 286 287 287 287 287 287 287 286 286 286 285 285 285 285 284
288 288 288 289 289 289 288 289 290 290 290 290 290 290 290 290 289 289 289 289 288 289 288 288 288 288 288 288 289 289 289 290 290 290 291 291 291 289 288 287 286 286 287 288 287 288 288 288 288 288 288 287 286 286 286 286 286 286 286 286 287 287 287 286 286 286 286 286 286 286 287 287 288 287 286 286 286 286 286 285 285 285 285 285 283
287 288 288 289 289 289 289 288 288 290 290 290 290 290 290 290 289 289 289 289 289 289 289 289 288 289 289 289 289 289 289 290 290 290 291 291 290 290 290 289 288 288 288 288 288 288 288 287 287 287 287 287 287 286 286 286 286 286 286 286 286 286 286 286 286 286 287 287 287 287 287 287 286 286 286 286 286 286 286 285 284 284 284 284 281
287 287 288 289 289 289 289 289 289 289 289 289 290 291 290 289 289 290 291 291 290 289 289 289 289 289 290 289 289 288 289 289 290 289 290 289 289 290 289 289 289 289 288 288 288 287 287 287 287 286 286 285 285 285 285 285 285 285 285 285 285 285 285 285 285 285 286 286 285 285 285 286 285 286 285 285 285 285 285 284 284 283 283 282 280
286 287 288 288 288 288 288 289 289 289 289 289 289 289 289 288 289 290 290 289 288 287 288 288 289 290 289 290 290 288 288 290 289 288 288 288 288 288 288 288 289 288 288 288 287 287 286 286 286 286 285 285 284 284 284 284 284 284 284 285 285 285 285 285 285 285 285 285 285 285 285 285 284 285 284 284 284 285 284 283 282 282 280 279 278
286 287 287 287 287 287 288 288 288 288 288 288 288 288 288 290 288 287 287 287 287 287 288 288 288 288 288 288 289 289 288 288 288 288 287 288 288 288 288 288 288 288 288 287 286 285 285 285 286 286 286 285 285 285 285 284 284 284 284 284 284 284 284 284 284 285 285 285 285 285 285 284 284 284 283 283 283 282 280 280 281 279 279 278 277
284 285 286 286 287 287 287 287 287 287 287 287 287 287 287 287 288 288 288 287 287 287 288 288 288 288 288 288 287 289 288 288 288 287 287 287 287 287 287 288 288 288 288 288 286 285 285 285 285 286 286 285 285 285 285 284 284 284 284 284 284 284 283 283 284 285 284 284 284 284 284 284 284 283 283 282 281 280 277 276 277 277 277 277 276
284 284 285 286 286 285 284 283 284 284 284 285 286 286 286 286 285 286 288 288 288 287 287 288 288 288 288 288 288 287 287 288 287 287 286 286 287 286 287 287 288 288 288 287 286 285 285 285 285 286 286 286 286 286 285 285 285 285 285 285 285 285 284 284 285 284 284 284 284 284 284 283 283 282 281 280 279 279 276 275 276 276 276 275 273
283 284 285 285 282 280 280 280 280 281 282 284 284 284 284 285 286 286 286 287 288 288 288 288 287 287 287 287 287 287 287 287 287 286 286 286 286 287 287 287 288 288 287 286 286 285 286 286 286 286 286 287 287 287 286 286 286 286 286 287 287 287 286 286 285 284 284 284 283 283 283 283 282 281 280 279 279 278 275 274 274 274 273 273 272
281 283 284 282 279 278 278 278 279 279 280 280 281 281 282 284 285 286 286 285 285 286 287 288 288 288 288 288 288 287 287 287 287 287 287 287 287 287 287 286 285 286 287 286 286 286 285 285 286 286 287 286 287 287 287 287 287 287 287 287 287 288 287 286 285 285 284 283 283 283 282 281 281 279 278 276 275 275 274 273 272 271 272 271 271
279 281 281 280 278 278 277 277 278 278 278 278 279 280 282 284 285 285 285 286 286 286 287 288 288 288 287 287 287 287 287 287 287 287 287 287 287 287 285 285 285 285 286 286 286 286 286 286 286 286 287 287 287 287 287 287 288 288 288 288 287 287 287 286 284 284 283 283 282 281 280 279 278 277 277 275 274 273 272 271 271 270 271 271 270
277 278 279 278 277 277 276 276 276 277 278 278 279 279 280 281 282 282 282 283 284 285 286 286 287 288 288 288 288 287 287 287 287 287 287 287 287 287 286 286 285 285 286 286 286 286 286 286 286 286 286 286 287 288 287 287 288 288 287 288 288 287 287 286 285 282 282 281 280 279 278 277 276 275 275 273 272 272 272 269 269 268 269 268 267
276 276 277 277 276 275 275 275 276 277 277 277 278 278 278 279 279 279 280 281 283 283 283 284 285 285 285 287 288 288 288 288 287 287 287 287 287 286 286 286 286 285 285 286 286 286 286 286 287 286 287 287 287 287 287 287 288 288 287 287 286 286 283 283 279 280 280 279 278 276 275 275 275 273 272 272 271 270 269 268 269 268 267 266 266
274 275 276 275 274 273 273 274 275 275 275 275 276 276 276 277 277 278 278 278 279 279 280 281 282 283 284 286 287 287 287 287 287 287 287 288 289 289 288 286 286 285 286 286 286 286 287 287 287 287 287 287 287 287 287 287 287 287 287 286 285 284 282 281 280 278 277 276 275 274 273 273 271 272 271 270 268 268 268 267 266 266 265 264 264
272 273 274 273 272 272 272 273 274 274 274 274 274 274 275 275 275 276 276 276 276 278 279 279 279 281 283 285 285 286 285 285 285 286 286 286 287 287 288 288 287 286 285 286 286 286 286 287 287 287 287 287 287 287 287 286 286 286 286 285 283 281 280 279 278 276 275 274 272 270 269 269 268 269 268 268 267 266 265 265 265 265 265 263 263
270 271 271 271 271 271 271 271 272 272 272 272 271 271 272 273 274 275 275 276 277 276 277 279 281 282 282 283 284 284 284 284 284 284 285 286 286 287 287 288 287 287 287 287 286 286 286 286 286 287 287 287 287 287 286 286 285 284 283 281 279 278 277 276 275 274 272 269 268 267 266 266 266 267 266 266 265 265 264 264 263 263 262 261 260
269 269 269 269 269 269 269 269 269 270 270 271 271 271 271 272 272 273 274 274 276 277 277 277 277 279 281 282 283 284 283 283 283 283 284 285 286 286 287 288 288 288 288 288 288 287 287 286 286 286 286 286 286 286 285 284 282 281 280 278 276 274 272 271 271 271 270 269 268 266 265 265 265 265 264 263 263 262 261 261 261 260 260 259 259
268 268 267 268 267 267 266 266 267 267 267 268 269 270 270 270 271 272 273 274 274 274 274 275 276 277 278 281 282 282 281 279 280 282 283 284 285 286 286 287 288 288 288 288 288 288 288 287 287 287 286 286 286 285 283 282 280 279 277 275 273 272 270 268 267 266 266 266 265 264 263 263 262 261 261 261 261 261 261 260 259 259 259 259 258
266 266 266 266 266 265 265 265 265 265 265 267 267 268 269 270 270 271 271 272 273 274 275 275 276 276 276 277 279 279 278 279 280 281 281 282 283 284 285 286 287 287 288 288 288 288 288 287 286 286 286 285 283 281 279 279 278 276 275 273 271 269 268 265 265 265 265 265 263 262 263 261 260 261 259 259 261 259 259 259 258 258 257 257 256
265 264 264 264 263 263 263 263 263 263 264 265 265 266 267 268 269 270 270 270 270 271 271 270 270 271 272 274 277 277 276 276 278 278 279 279 280 281 282 283 285 285 285 285 286 285 283 283 283 283 281 278 275 273 273 273 272 273 273 272 270 266 266 265 265 265 264 263 262 261 260 260 259 260 259 259 259 259 258 257 256 255 255 255 254
262 262 262 262 261 261 261 261 262 262 262 263 263 264 265 266 266 266 266 266 267 267 268 269 270 271 272 272 272 274 275 276 275 274 274 274 274 274 275 276 275 273 273 273 272 271 270 271 273 274 273 272 269 268 268 267 268 269 269 269 267 267 266 265 264 263 263 262 261 260 259 259 258 258 257 258 257 256 255 254 254 254 254 253 253
260 260 260 260 260 260 260 260 260 260 261 261 261 261 262 262 263 264 265 265 265 266 266 266 267 268 269 270 270 269 268 268 268 269 269 270 271 272 273 273 272 272 271 271 270 269 268 268 268 269 269 269 266 264 264 264 265 265 265 265 265 263 262 262 262 262 262 261 260 260 260 258 256 256 255 255 255 255 254 254 253 253 253 252 252
258 258 258 258 258 258 258 259 258 259 258 258 259 259 260 261 261 262 262 262 261 262 263 264 265 265 265 265 266 266 266 266 267 268 268 269 270 270 270 270 270 270 270 269 268 267 267 267 267 266 265 263 262 262 261 260 260 259 259 259 259 260 260 260 260 260 260 259 259 258 257 256 254 254 254 254 254 253 253 252 252 252 251 251 251
257 256 256 256 257 257 257 257 257 256 256 257 257 257 258 258 259 259 259 259 260 261 260 260 260 261 262 262 262 263 263 264 265 265 265 266 267 267 268 268 268 268 267 266 266 264 261 260 259 259 259 259 257 256 256 256 255 255 256 256 258 259 258 258 258 258 257 257 257 257 256 255 254 254 253 253 252 252 252 251 251 250 250 251 251
255 255 255 256 256 256 256 256 255 255 255 256 255 255 256 256 256 257 257 257 257 258 258 258 258 258 259 259 260 260 261 261 262 263 264 265 266 266 266 266 266 266 264 261 259 257 257 256 256 256 255 255 255 254 254 255 255 256 256 257 257 256 256 256 257 256 256 256 256 255 254 254 253 252 251 251 251 251 250 250 250 250 250 250 250
254 254 254 254 254 254 254 254 254 254 254 254 254 254 254 254 254 255 255 255 255 255 256 256 256 257 257 257 258 258 259 259 260 260 261 261 262 262 263 264 264 261 257 256 255 255 255 255 255 254 254 254 255 255 255 256 256 256 256 255 254 254 254 254 254 254 254 254 254 253 252 251 251 250 250 250 250 250 250 250 250 250 249 249 249
Wind_Speed
7 7 6 6 7 8 8 7 8 7 7 8 8 9 9 8 8 8 6 7 7 8 8 9 9 8 8 7 7 7 7 7 6 6 7 7 7 8 7 8 9 8 8 9 8 8 9 10 10 10 9 9 8 8 8 8 8 8 8 8 9 9 9 11 12 13 10 9 8 8 7 6 7 7 8 7 6 6 8 8 8 7 7 7 8
7 7 5 5 7 8 8 7 6 6 7 7 9 9 9 9 8 7 8 9 7 9 9 8 8 8 8 9 8 8 8 8 7 6 7 8 8 6 7 8 9 10 8 10 9 8 8 10 11 10 9 10 9 9 9 8 9 9 9 9 10 10 10 10 12 12 14 8 9 8 9 7 8 8 9 9 10 7 7 7 6 7 7 7 8
6 6 6 6 8 7 7 7 7 8 8 8 9 9 9 9 8 8 9 8 8 8 8 8 9 9 9 9 9 9 9 9 8 8 8 9 9 8 8 9 10 10 10 11 10 9 9 10 11 9 7 9 10 10 9 10 9 10 11 9 11 11 11 12 11 12 13 12 9 9 8 8 10 10 10 9 9 8 8 8 7 6 7 8 8
6 6 7 8 8 7 8 8 8 8 8 9 10 10 9 9 8 9 9 8 9 8 8 9 8 9 9 9 10 9 9 9 9 9 10 10 10 11 10 10 10 11 11 11 10 10 11 10 11 10 9 10 10 9 9 10 10 10 10 10 11 11 11 10 12 12 11 12 10 10 9 9 9 9 9 7 8 8 8 8 7 8 7 7 9
6 6 7 8 8 8 9 9 9 9 10 9 10 10 10 9 8 9 9 9 10 8 8 8 9 9 9 10 10 10 10 10 10 10 10 10 11 10 10 10 11 11 11 11 11 10 11 12 11 9 10 11 10 10 10 12 10 10 10 10 10 10 9 10 11 11 12 14 12 10 9 9 9 8 8 8 8 8 8 9 9 9 9 8 7
6 6 7 7 8 9 10 9 10 11 10 10 10 10 9 9 9 8 9 11 10 9 9 8 8 10 10 10 11 11 10 10 11 11 11 10 10 10 11 11 11 11 11 11 11 11 11 12 11 11 11 12 11 11 10 12 11 11 12 11 10 9 10 11 10 11 12 13 12 12 10 10 9 9 9 9 9 7 7 9 8 8 9 9 9
6 7 8 8 8 9 9 10 9 9 9 10 8 8 9 9 9 10 9 10 9 9 10 10 9 10 11 10 11 11 11 10 10 11 11 11 11 11 11 11 12 11 11 12 12 12 12 12 12 12 13 13 13 12 11 11 10 12 12 11 11 10 10 10 10 11 11 12 11 12 11 11 10 10 8 9 10 9 9 8 9 9 10 11 10
7 8 8 8 9 11 10 9 9 9 9 8 9 10 9 9 9 9 8 9 10 10 10 10 10 9 10 10 10 10 10 10 11 11 11 11 11 11 11 11 11 11 11 12 12 12 13 13 13 13 13 13 13 12 12 11 10 11 11 10 10 11 11 10 10 11 11 11 11 11 10 10 9 10 7 6 7 9 9 9 11 9 8 9 11
8 8 8 9 10 10 9 7 7 8 8 9 9 10 10 9 9 9 8 9 8 10 10 9 10 10 10 11 11 10 10 11 10 10 11 12 12 12 12 12 12 12 11 11 12 12 12 13 13 13 14 15 16 13 12 11 9 10 11 11 11 11 11 10 10 10 11 11 11 10 11 11 11 9 10 11 12 12 8 9 10 9 8 7 8
8 9 9 10 9 8 8 7 8 8 8 9 10 9 9 9 8 9 10 10 10 9 9 10 11 11 11 11 11 10 10 9 13 18 16 11 11 10 10 11 12 12 11 11 12 13 13 12 12 17 16 17 17 18 17 16 16 13 10 10 12 11 12 11 11 11 11 11 12 11 11 13 12 12 12 12 9 8 8 9 9 8 8 9 9
7 8 11 10 8 8 8 8 7 9 10 9 9 9 10 8 8 10 10 10 10 10 9 11 11 11 12 11 12 11 10 11 19 19 21 21 14 11 11 12 11 12 12 12 12 11 11 13 12 13 15 15 16 19 19 20 20 20 20 17 13 11 11 12 13 12 12 12 11 12 13 14 13 11 11 10 9 10 10 9 9 7 8 9 11
9 10 11 9 9 10 9 9 9 11 10 10 10 9 8 9 10 10 10 11 11 9 10 12 12 11 10 11 13 12 11 16 21 21 18 16 20 14 11 11 10 11 11 12 11 11 11 10 10 9 10 13 13 13 17 21 21 21 22 22 22 20 17 13 12 12 13 12 12 14 12 14 12 10 10 9 10 9 9 9 10 9 10 11 10
9 10 10 9 10 9 9 9 10 11 11 10 9 8 10 10 11 10 12 11 9 10 12 11 12 11 11 13 13 13 12 19 21 21 22 16 16 20 12 12 11 12 13 12 12 12 10 10 10 9 9 15 12 12 12 13 19 23 22 21 21 22 22 23 23 17 11 12 14 15 14 13 12 12 11 10 8 9 8 9 10 10 11 11 11
8 10 10 11 11 10 9 9 10 11 11 10 10 10 10 11 11 10 9 9 11 11 12 13 12 12 12 12 12 12 13 18 21 20 20 22 15 18 14 14 12 13 14 13 12 13 13 11 11 10 10 10 11 13 13 13 11 12 15 15 15 18 22 25 26 26 21 16 15 16 14 13 13 11 10 10 11 11 10 11 10 10 11 13 10
9 9 9 11 10 10 10 10 11 11 11 10 10 11 11 11 12 11 9 10 11 10 11 12 11 11 12 12 12 12 12 20 21 20 20 22 13 19 14 13 13 13 14 14 15 14 14 12 12 12 10 11 10 13 13 13 12 11 12 13 15 15 15 17 19 18 17 18 19 19 17 14 14 13 12 10 12 12 11 12 11 10 10 9 10
10 9 9 10 10 11 11 11 11 11 11 11 10 11 11 11 12 11 10 9 10 10 11 11 13 13 13 13 12 14 13 20 22 22 20 18 14 14 14 15 15 14 14 15 15 13 13 13 12 12 13 13 14 18 16 11 11 12 13 13 13 13 14 15 17 17 17 18 18 18 17 17 15 13 12 12 11 10 10 10 10 10 10 10 13
10 9 9 10 10 10 10 11 11 10 11 11 11 11 11 12 11 8 9 10 11 11 11 11 10 11 13 12 13 14 13 18 22 23 20 21 14 13 14 14 14 15 15 14 13 13 13 13 13 12 13 14 16 18 18 17 12 13 13 13 12 12 14 12 17 21 22 23 23 22 21 20 20 21 19 18 14 10 9 9 12 11 11 12 12
11 10 10 10 10 9 9 10 11 11 10 11 12 11 11 10 11 8 10 11 11 11 11 11 10 11 12 14 12 14 14 16 20 21 21 19 16 14 13 13 15 14 14 13 11 11 15 21 18 14 15 15 17 19 16 17 14 15 13 13 14 14 14 11 9 13 22 23 24 23 23 22 21 22 22 21 21 16 13 14 11 9 12 12 12
11 12 12 12 11 11 10 10 11 12 12 12 10 12 12 11 10 9 10 10 11 10 11 12 12 11 12 14 16 17 16 17 19 20 20 18 15 13 13 13 14 14 13 13 11 12 13 16 23 21 17 18 19 18 16 19 15 15 14 13 14 15 14 11 12 11 11 13 15 16 16 20 18 17 17 22 22 20 17 17 12 12 13 12 11
12 11 11 11 10 11 8 9 10 11 13 12 11 11 11 10 11 11 11 10 11 10 11 11 14 12 11 13 12 13 16 16 17 19 20 19 20 14 12 13 16 15 14 13 12 12 13 12 17 23 20 25 23 17 18 21 18 15 13 14 14 16 11 11 12 11 11 11 11 12 14 13 14 15 15 15 16 18 18 17 16 14 14 14 11
12 11 10 10 11 11 10 10 12 11 11 12 11 11 10 11 11 11 12 11 11 11 12 12 12 14 12 13 14 14 13 16 17 17 19 20 21 19 14 16 16 14 12 14 13 13 11 12 11 20 24 21 20 19 20 22 23 16 15 15 16 14 7 7 10 12 10 10 9 10 10 11 12 13 13 14 14 15 16 17 17 18 17 14 15
12 12 12 12 11 12 12 11 12 10 10 10 10 11 10 10 10 11 11 11 13 14 13 12 13 14 12 13 13 15 16 18 16 17 19 21 22 24 17 17 16 12 14 14 14 13 15 13 12 19 26 26 19 21 24 23 25 17 17 21 19 16 12 6 5 7 8 9 11 11 12 12 12 11 13 13 13 14 15 15 15 17 15 18 15
12 13 13 13 12 13 12 13 12 11 12 11 12 12 11 10 10 9 11 11 12 14 13 12 13 14 13 12 12 14 14 14 19 17 19 20 23 24 27 22 21 15 16 17 17 15 13 13 16 23 22 23 24 22 23 27 23 20 24 23 22 20 14 8 7 9 12 13 12 13 14 14 14 14 14 13 13 13 14 13 14 14 14 14 14
13 12 12 12 12 12 13 12 11 11 12 12 9 12 11 10 10 8 9 9 10 11 10 10 11 12 13 14 13 12 12 11 14 19 19 22 23 26 26 27 27 19 17 17 16 15 13 13 17 25 22 21 23 20 23 25 19 24 28 25 23 19 11 9 10 13 13 13 13 14 15 14 14 15 14 12 12 12 12 13 12 12 10 12 13
11 10 12 11 10 10 11 11 11 10 11 9 11 10 11 11 10 8 6 8 9 10 11 9 10 11 12 15 14 12 11 10 11 13 18 21 24 25 26 28 28 27 19 19 19 15 18 23 23 20 18 20 24 23 21 25 27 24 25 24 20 12 12 11 12 12 13 15 15 14 14 14 16 15 13 11 10 9 9 7 8 9 11 11 11
12 12 11 11 11 11 11 10 10 9 11 9 10 8 10 11 9 9 8 9 9 10 11 10 10 11 12 15 15 14 12 11 11 11 11 16 18 23 26 26 26 26 27 23 27 27 26 25 24 22 18 18 15 12 13 16 22 25 24 21 13 13 12 12 13 13 15 14 14 15 15 13 14 14 11 9 11 13 12 12 10 11 9 9 10
12 12 12 12 11 9 11 10 10 9 9 8 8 8 9 9 10 9 9 9 10 10 9 9 10 9 10 13 14 13 13 11 10 8 7 7 8 12 13 15 22 23 18 17 20 20 24 22 16 17 14 17 18 17 18 16 13 15 14 15 14 14 13 13 13 15 15 15 14 15 12 13 10 9 11 12 13 12 10 11 11 11 10 10 11
13 13 13 11 10 10 10 13 13 10 10 9 10 10 8 8 9 11 10 9 11 12 11 11 10 10 11 12 12 11 13 12 10 6 6 6 6 7 8 8 7 8 11 12 12 14 16 15 16 12 12 12 13 12 14 12 13 12 11 12 13 14 15 16 14 12 13 11 13 12 11 12 13 14 12 13 13 12 10 10 11 10 9 9 9
13 13 13 11 11 10 11 11 11 12 11 10 9 9 10 10 11 11 10 8 9 11 12 13 13 12 12 13 14 15 15 17 14 8 10 14 11 9 6 7 8 7 13 15 12 12 11 11 13 14 14 15 16 17 16 14 12 13 15 12 10 13 12 11 13 15 13 11 15 15 15 14 14 12 12 13 13 11 9 10 10 10 8 9 12
13 12 11 11 12 13 13 13 12 12 13 14 14 12 11 13 12 12 13 14 15 18 17 15 14 13 12 14 14 14 16 19 26 29 25 23 24 23 21 21 19 15 17 17 12 10 13 13 13 14 14 15 16 17 18 14 12 11 11 15 13 11 14 13 14 16 15 15 13 13 15 14 14 12 14 13 11 10 10 11 10 9 10 10 10
12 12 12 12 13 13 13 14 13 13 13 14 14 15 16 13 12 17 18 20 22 20 19 22 24 24 18 17 18 25 26 26 27 29 30 26 24 25 26 24 24 23 21 13 8 12 14 14 15 15 15 16 17 18 17 12 11 11 11 12 13 15 15 14 15 16 16 15 14 13 12 13 13 12 14 13 12 10 8 9 9 9 10 10 10
13 13 13 12 13 13 13 13 13 13 14 13 14 15 15 17 18 14 12 14 17 22 23 21 20 21 23 22 19 16 21 25 25 25 27 28 26 23 23 24 25 24 21 18 14 12 12 13 15 17 17 16 18 17 15 13 12 11 11 12 14 13 16 16 18 15 14 15 14 13 13 14 14 13 13 12 11 11 11 9 10 11 9 9 9
15 14 13 12 13 13 13 13 13 14 15 15 15 15 15 16 18 20 21 19 16 15 18 21 22 21 21 22 24 22 23 24 30 30 28 27 28 26 25 26 27 25 21 14 13 16 14 13 17 15 13 19 15 14 13 14 16 14 12 12 12 13 13 19 19 11 13 15 15 15 14 14 14 12 10 10 11 13 11 12 11 11 10 9 7
15 14 13 13 14 13 13 13 13 14 14 15 15 15 16 15 17 18 20 20 20 18 15 15 15 18 20 22 21 19 20 23 26 28 29 29 26 23 22 21 25 24 18 14 15 17 16 15 14 15 14 14 11 9 11 16 16 16 14 13 14 11 15 14 11 14 15 15 15 15 14 14 12 13 12 12 13 11 11 11 10 12 11 11 10
14 16 17 15 13 13 13 13 13 13 14 14 15 16 16 16 15 16 16 18 18 19 18 18 19 18 15 13 17 21 22 22 24 25 28 27 25 22 21 14 15 12 12 13 15 16 16 16 16 17 13 12 13 15 17 15 15 15 15 14 14 14 12 12 14 15 15 15 15 15 14 14 13 12 12 12 12 12 12 11 11 11 12 10 10
15 13 13 13 12 12 13 14 14 14 14 15 15 16 16 16 16 16 16 17 17 17 18 17 18 19 25 23 20 19 21 23 24 25 24 25 23 21 12 11 13 13 13 11 13 15 15 15 16 20 15 15 12 12 15 17 15 14 13 13 14 13 13 13 12 12 13 14 13 14 11 11 11 11 10 11 14 14 11 12 11 10 10 10 10
15 14 12 11 12 13 14 14 14 15 16 16 15 15 15 15 16 16 16 16 17 17 17 18 18 19 20 18 18 16 17 19 20 21 22 22 23 15 10 11 12 14 12 12 12 13 14 14 14 15 15 16 15 13 8 16 18 17 15 15 14 14 13 13 13 12 13 12 12 11 12 12 11 11 12 12 11 10 10 9 9 8 9 9 10
14 14 13 13 13 14 14 14 14 17 15 15 15 15 15 15 16 16 17 17 18 18 19 19 19 19 19 20 21 18 16 15 19 19 18 19 14 10 10 12 13 13 14 13 12 10 11 13 17 17 16 16 16 15 15 15 15 15 15 15 14 14 16 15 13 13 12 11 11 11 11 10 9 9 9 10 10 9 8 8 10 10 9 11 10
13 17 21 22 18 15 14 15 15 15 15 14 14 16 17 16 17 17 17 17 17 18 19 18 19 19 20 18 18 18 21 17 14 15 14 13 12 11 9 10 10 11 12 12 15 16 13 11 14 17 16 16 16 16 16 16 15 15 15 13 13 13 12 12 12 11 11 12 10 9 9 9 8 8 9 8 8 8 9 9 8 10 11 9 7
15 15 15 22 16 15 15 16 16 15 15 16 17 17 18 18 17 18 17 17 19 19 18 19 19 18 18 19 18 18 20 20 18 18 17 18 17 16 14 13 13 13 12 11 11 14 18 16 15 15 15 15 16 16 15 15 14 14 13 12 12 12 13 12 11 11 12 10 10 8 8 8 8 9 8 7 9 9 10 10 9 9 9 8 8
15 15 16 16 18 16 16 16 15 15 15 16 16 16 17 18 18 20 19 19 18 19 19 19 18 18 19 24 30 30 22 22 21 19 19 19 19 18 17 15 15 15 15 15 14 14 14 14 15 15 15 15 15 14 14 14 13 13 13 11 11 12 11 10 10 11 10 10 11 10 9 7 9 12 11 9 8 9 8 8 9 8 8 8 9
16 16 16 15 16 15 14 15 16 19 19 18 17 16 17 19 19 19 19 20 21 20 19 19 19 20 23 32 31 32 25 21 21 20 19 18 18 18 17 17 16 16 15 15 14 14 14 13 14 13 14 15 15 14 13 12 12 12 11 10 11 10 9 10 10 10 11 12 11 11 11 11 10 9 10 10 11 10 11 11 10 11 10 10 9
17 16 16 16 16 15 16 16 17 17 18 19 19 19 21 19 17 20 20 18 19 21 22 21 20 19 21 27 28 31 22 21 22 21 19 18 15 15 15 16 16 15 16 15 15 14 14 14 14 13 13 15 15 14 13 13 13 12 11 11 11 11 10 9 8 9 10 10 11 11 11 11 11 9 10 10 11 11 11 12 12 11 11 11 11
16 16 16 17 16 16 16 16 17 17 17 21 23 22 21 20 18 18 18 19 19 19 19 19 21 21 20 22 23 21 18 18 19 18 19 20 18 16 16 16 17 18 17 16 15 14 14 14 13 13 13 12 11 11 11 11 10 10 11 11 10 10 10 10 11 11 12 12 11 11 12 11 11 11 11 10 12 13 12 12 12 12 12 11 10
15 15 16 16 17 17 17 16 16 18 21 20 18 19 20 19 19 18 18 19 21 21 21 22 23 23 23 22 19 18 20 21 21 21 20 18 18 19 19 17 18 19 19 19 17 15 13 14 15 15 14 10 7 8 8 8 8 9 9 11 11 12 12 13 12 11 11 12 11 11 10 11 9 12 12 11 11 12 11 12 11 12 12 11 10
16 16 17 17 17 17 17 17 18 18 17 17 17 18 18 19 19 20 21 21 21 20 20 20 20 20 21 21 23 23 19 17 19 20 21 19 19 19 19 18 18 16 12 13 13 14 12 13 13 12 10 7 6 7 6 6 5 5 6 6 7 8 7 8 8 10 11 12 13 12 11 11 9 8 10 10 7 8 8 8 8 9 10 11 10
18 17 17 17 17 18 19 19 18 17 17 18 19 20 20 19 19 20 20 21 21 21 21 21 21 20 20 20 19 20 22 22 22 22 21 22 22 21 18 17 16 17 17 16 14 13 15 13 11 11 11 10 8 8 5 4 4 4 5 5 5 7 8 8 9 10 11 11 11 12 12 11 9 10 11 11 8 9 9 8 8 10 9 8 9
17 17 17 18 18 18 18 17 18 21 20 20 19 19 20 20 19 19 19 20 21 21 20 19 19 20 21 21 20 21 21 21 21 20 20 20 19 19 19 20 18 15 14 16 15 14 13 12 11 9 8 6 6 4 2 3 3 4 4 5 6 7 11 12 10 10 9 11 11 13 14 13 9 9 9 9 9 9 9 8 7 7 7 8 6
17 17 17 17 17 17 17 18 19 18 18 19 20 20 19 19 19 19 19 20 20 19 19 20 20 20 20 20 20 20 21 21 21 20 20 20 20 19 19 18 17 15 13 14 15 12 8 5 3 2 0 2 4 5 6 6 6 6 6 5 9 17 18 17 12 13 16 13 12 13 13 14 13 12 11 11 9 8 8 8 8 8 7 7 7
17 17 17 17 17 17 17 17 17 17 18 18 18 19 19 19 19 19 19 20 19 19 19 19 20 20 20 20 21 21 21 21 21 21 21 20 20 20 19 20 19 17 12 10 8 4 2 2 3 4 5 5 6 7 7 6 6 7 6 8 16 18 17 18 20 20 15 13 14 13 14 14 15 12 9 10 10 11 10 9 8 6 7 7 7
17 17 17 17 17 17 17 16 17 17 17 18 18 18 19 18 18 19 19 19 19 19 20 19 19 20 20 20 21 21 21 21 21 21 21 22 22 21 20 19 17 12 5 3 1 1 2 3 4 5 6 8 8 7 7 8 8 10 17 22 21 20 19 16 13 16 19 13 12 11 12 15 17 15 10 8 8 9 8 9 8 8 7 7 8
Wind_Direction
236 237 234 233 234 241 243 238 236 236 243 240 246 250 250 247 244 241 237 230 225 227 228 231 232 233 235 230 233 232 230 228 217 217 223 231 230 232 231 222 229 237 233 233 221 218 225 230 232 229 224 227 230 229 227 222 213 219 222 224 231 227 226 238 250 262 259 244 249 244 230 208 231 221 243 242 225 205 213 236 240 233 233 234 239
235 237 227 231 233 239 241 238 235 232 235 240 241 246 247 245 245 246 241 242 225 230 231 229 228 229 230 231 229 231 232 231 224 219 225 229 231 223 228 227 233 238 233 238 228 221 222 231 236 229 219 225 229 231 230 225 217 218 217 218 225 228 219 230 243 253 264 253 244 238 239 209 238 224 229 235 236 221 209 216 222 225 227 233 232
249 244 242 240 240 239 242 241 235 232 233 237 237 238 242 244 241 241 246 248 236 232 232 229 228 227 230 231 230 229 226 227 223 221 225 226 229 227 221 226 230 233 232 235 231 224 226 229 236 228 213 221 227 230 230 231 225 224 223 217 224 226 224 222 236 248 255 257 249 251 235 214 218 234 225 229 235 233 231 226 223 221 223 233 237
248 244 245 245 247 247 246 245 239 237 234 232 234 233 231 237 230 234 240 244 244 238 230 233 231 227 230 231 229 228 225 223 221 219 225 226 228 231 227 224 228 232 234 236 231 223 226 233 235 225 217 222 229 228 226 226 227 228 226 224 225 227 225 223 224 242 252 263 250 243 240 244 231 229 234 231 224 225 227 241 231 230 230 223 234
248 248 247 252 249 243 244 239 238 237 235 237 235 234 233 231 227 227 231 236 236 239 235 226 231 229 227 228 228 226 226 223 224 224 222 223 227 228 227 227 227 229 231 233 232 227 227 229 235 223 217 224 228 226 224 220 223 226 228 225 225 226 224 222 227 229 241 250 257 251 250 244 245 241 220 221 224 227 229 229 234 233 234 233 229
244 250 247 247 250 246 247 243 241 242 241 242 239 236 235 231 232 228 223 232 231 229 230 226 219 231 230 229 229 231 228 224 226 227 225 222 224 227 229 228 229 229 230 230 228 225 228 231 231 224 220 220 226 225 222 222 221 225 227 228 227 225 226 226 226 230 233 243 249 257 247 246 242 237 225 217 229 230 226 227 226 229 233 236 229
250 246 246 244 253 251 245 240 239 242 240 242 244 244 240 237 232 235 225 228 229 228 225 229 227 227 235 232 231 230 228 224 225 227 228 226 224 225 226 227 229 228 228 227 226 226 226 230 230 224 223 223 226 225 220 220 217 223 225 228 228 227 227 228 226 228 230 239 244 244 252 248 242 247 231 212 223 227 234 240 234 222 217 223 236
248 246 244 246 243 248 245 240 241 243 246 247 247 247 246 243 238 238 235 233 233 234 234 227 231 223 232 233 235 232 230 227 223 224 225 224 223 224 224 225 226 227 228 226 225 224 225 227 228 225 223 224 222 223 217 221 217 223 224 223 223 225 229 230 229 228 231 234 238 242 239 246 244 238 236 203 215 227 221 225 239 236 222 214 222
271 259 250 246 245 243 247 246 248 255 253 252 251 247 245 244 245 243 236 240 237 240 240 240 241 236 229 230 234 229 230 230 220 216 219 221 221 225 225 225 225 228 229 227 225 225 225 226 227 226 221 223 221 220 217 212 215 222 223 218 220 222 228 229 230 229 231 232 241 237 240 240 238 230 222 218 215 223 213 207 235 240 245 242 228
254 262 258 253 252 254 257 263 263 260 257 252 250 250 249 248 246 246 246 244 244 240 238 238 237 239 238 232 225 223 227 226 228 224 223 220 217 219 221 226 225 226 229 230 229 225 226 224 225 224 226 224 225 226 226 223 223 227 228 220 218 221 224 227 229 228 228 231 234 233 233 235 233 224 225 228 226 219 221 217 226 232 234 245 251
256 254 260 260 266 273 275 273 272 267 261 259 260 257 258 255 253 251 249 245 243 242 236 244 240 236 235 236 234 228 223 230 233 229 228 224 227 226 222 226 223 225 227 228 232 227 225 226 232 226 225 230 231 229 228 228 229 229 232 235 232 223 223 226 231 226 228 231 236 235 234 240 237 227 226 227 222 220 221 224 231 231 234 239 253
264 266 266 272 274 274 269 270 269 267 264 261 259 259 259 259 259 254 251 251 245 240 244 242 242 241 237 238 241 241 241 238 234 229 222 215 223 227 228 228 221 225 227 228 232 231 230 227 226 223 220 221 223 226 226 228 230 229 230 231 231 234 234 232 232 232 227 232 236 235 236 237 240 228 228 216 223 224 225 226 229 228 233 236 243
270 269 272 274 274 266 264 264 266 268 266 265 264 265 263 261 259 254 249 248 250 244 246 243 241 240 235 239 240 240 244 249 242 232 227 213 209 222 234 231 226 227 228 228 227 227 225 227 229 219 221 220 220 226 227 224 223 227 231 233 234 231 231 233 236 238 239 238 239 242 233 238 239 234 222 219 215 226 223 227 226 228 230 239 243
265 269 271 275 275 273 272 269 269 268 271 271 270 268 264 259 259 258 256 255 252 251 250 248 245 242 238 238 242 246 245 256 252 244 236 230 210 214 230 235 233 230 227 225 223 223 221 224 225 224 219 211 214 220 223 226 224 218 223 229 232 230 229 232 233 233 233 240 243 246 243 235 241 237 230 214 213 224 225 233 227 229 229 235 239
275 271 271 274 276 278 276 270 270 271 271 271 270 267 264 264 261 258 255 253 254 251 251 253 245 243 247 244 246 246 248 256 257 251 243 237 212 219 230 234 236 234 229 225 225 223 223 223 226 230 222 209 207 208 214 216 217 220 221 223 226 227 226 225 226 227 224 228 236 242 247 244 245 241 236 226 219 226 228 234 233 235 244 251 247
276 272 273 271 271 272 274 273 270 272 271 269 266 267 264 259 261 260 264 259 253 251 255 250 253 252 248 246 246 249 248 252 255 252 245 238 215 232 231 235 234 234 232 227 224 222 222 224 227 229 226 223 215 208 210 210 215 219 223 227 229 230 229 225 224 220 221 224 228 231 236 238 239 241 236 234 233 233 235 237 239 238 241 244 245
277 274 271 273 268 269 272 274 272 270 272 272 269 266 265 265 263 259 262 256 257 253 251 245 243 248 250 243 245 251 250 248 250 251 244 238 225 232 232 233 235 233 235 230 224 222 218 217 222 227 227 228 222 211 207 204 220 221 226 229 229 231 236 228 223 224 225 228 231 234 237 239 239 240 238 234 236 237 240 236 230 222 224 237 244
295 295 291 285 282 281 276 276 278 275 273 270 270 269 266 267 267 259 264 268 260 253 253 255 246 243 245 249 240 254 254 248 249 252 245 235 224 231 232 233 236 234 239 234 226 226 223 222 223 226 229 229 223 214 197 198 217 223 223 229 231 234 237 227 221 222 226 231 233 236 240 241 243 244 242 239 234 225 231 234 230 217 229 229 241
301 304 305 303 299 293 288 284 281 280 277 274 270 274 272 271 270 269 264 259 260 261 261 263 261 251 245 249 250 251 259 257 249 251 248 237 225 229 233 236 240 237 236 239 229 227 232 227 223 226 229 233 227 213 190 198 213 219 217 222 230 233 232 219 217 220 216 218 229 231 238 239 241 241 240 237 233 227 227 235 232 228 232 231 232
305 305 302 301 299 297 285 279 277 277 281 278 273 274 278 277 273 271 267 264 268 262 260 259 262 259 252 256 254 246 252 257 251 246 248 242 229 226 230 233 237 238 234 237 236 227 225 228 226 223 224 232 230 207 198 198 211 215 213 218 225 233 225 219 217 215 220 214 219 218 227 229 231 230 232 231 228 225 227 228 228 228 234 237 227
308 308 303 296 297 298 296 290 289 284 279 282 280 280 278 276 278 275 275 273 268 267 262 263 263 264 259 257 257 255 246 257 262 245 247 244 236 226 234 234 235 234 238 238 229 233 226 222 222 222 219 219 214 207 203 199 208 215 216 218 218 226 207 215 213 204 219 224 223 225 229 228 227 227 224 222 221 220 220 222 224 229 229 231 231
313 307 303 300 297 299 297 296 298 297 293 288 284 280 273 268 269 273 274 275 275 271 269 268 268 269 266 257 252 254 253 250 260 261 245 245 243 233 235 239 234 233 241 242 238 230 227 225 218 226 224 221 210 210 210 207 206 214 223 225 225 219 215 213 200 202 219 225 235 235 234 234 232 227 228 223 219 217 216 214 215 220 224 229 226
316 314 310 305 303 302 300 301 299 301 298 295 290 287 285 280 274 268 271 272 270 270 269 269 270 272 271 264 258 253 251 250 246 253 254 246 246 242 237 242 243 237 242 246 241 236 226 225 234 238 229 221 218 211 211 212 212 219 223 223 225 221 216 217 214 224 234 233 230 232 231 231 232 231 227 226 222 217 216 212 212 213 218 224 227
320 313 310 305 305 303 304 301 298 297 299 298 291 291 288 286 280 273 272 272 275 275 274 271 272 273 273 275 266 256 252 247 248 244 249 250 246 245 244 242 243 239 241 249 249 244 239 228 236 239 231 225 223 213 212 213 213 216 219 221 220 216 213 216 221 226 228 230 228 228 228 226 229 231 227 222 220 215 220 222 214 207 209 221 226
318 313 311 307 307 305 304 302 300 299 297 294 298 294 291 292 288 281 262 266 266 271 275 273 269 275 280 276 278 275 263 253 251 242 236 244 247 247 246 243 242 240 242 247 249 246 247 248 251 248 238 229 227 222 220 221 218 217 217 218 214 210 212 212 215 218 221 223 225 226 230 226 225 229 227 219 220 223 224 219 221 226 227 230 231
325 321 318 315 313 309 306 303 300 297 297 293 290 283 289 291 283 285 281 277 274 270 274 274 272 275 277 280 279 280 273 264 260 255 250 244 247 246 245 246 244 240 238 246 251 255 257 259 257 255 250 239 230 221 221 225 220 218 218 214 210 211 210 210 212 214 220 220 220 224 228 229 229 229 224 219 219 220 217 219 216 220 211 219 222
326 324 324 320 317 315 314 315 312 307 301 299 287 278 279 281 279 275 273 275 271 268 266 266 271 268 268 275 277 279 275 271 264 256 249 240 236 244 240 244 246 246 247 249 253 256 257 257 255 253 251 245 237 232 233 232 227 222 219 215 214 214 211 210 208 212 218 220 221 224 225 226 226 219 214 212 219 220 209 210 214 218 207 210 218
333 328 324 323 320 322 320 314 312 309 309 305 300 298 288 279 287 289 292 293 293 291 288 284 278 277 282 281 282 280 279 278 274 276 266 253 245 241 233 238 235 229 237 240 243 251 257 260 256 248 239 239 236 233 229 221 219 215 210 210 211 214 216 217 218 222 225 218 224 223 220 216 217 221 215 213 214 210 200 200 205 209 197 198 210
331 326 325 324 322 324 320 318 315 314 309 305 298 297 301 300 291 283 277 276 277 287 291 283 280 280 280 282 286 288 286 284 283 292 281 277 270 268 249 232 234 232 237 240 253 257 255 248 248 241 232 226 227 227 225 217 213 213 214 211 206 212 212 207 210 216 214 207 218 216 216 212 216 213 212 213 212 205 189 198 201 197 190 187 205
325 324 324 325 326 329 327 324 323 320 320 317 314 305 280 265 269 285 293 277 259 254 259 272 277 284 284 277 276 277 282 286 294 294 285 280 279 273 269 268 266 260 258 247 238 250 249 248 239 235 231 227 226 227 226 216 210 206 205 214 210 205 210 209 213 219 213 211 215 211 214 210 212 205 207 208 208 199 191 187 196 187 189 193 201
325 325 328 329 327 324 326 326 325 322 320 319 317 314 314 304 262 248 252 276 281 273 259 260 268 270 269 280 280 276 274 274 278 283 285 282 275 274 274 271 266 262 258 256 233 238 245 243 243 238 234 232 230 230 228 221 209 207 206 208 210 212 214 213 217 217 215 215 216 214 212 206 207 204 203 206 203 195 182 190 184 185 195 195 201
327 327 327 325 326 329 328 326 324 323 322 319 316 316 314 313 310 296 263 243 258 280 288 280 271 268 270 267 270 279 284 283 276 273 277 281 280 275 273 272 269 263 257 243 244 234 231 236 244 245 241 236 234 231 226 222 219 215 212 210 216 213 214 216 219 213 212 216 217 217 214 213 214 212 211 207 197 188 188 186 189 192 195 197 201
327 325 324 326 329 331 331 329 325 322 320 318 318 316 314 313 311 314 313 306 286 258 259 274 281 281 270 264 264 265 269 276 283 283 279 275 279 280 277 273 271 265 258 243 238 244 241 237 242 243 238 242 236 233 229 226 231 228 219 213 214 213 209 222 222 214 219 220 218 219 217 216 215 214 209 197 190 194 186 191 188 189 191 194 192
324 322 324 330 333 330 328 326 322 320 317 315 314 314 311 307 305 305 306 310 310 303 286 267 255 252 263 271 273 267 266 270 274 276 279 280 278 278 276 274 271 268 253 245 240 245 247 248 243 245 240 238 237 229 234 239 234 234 231 225 226 226 227 225 217 217 221 220 220 221 218 214 207 203 200 197 196 190 187 187 174 184 189 189 182
324 320 323 332 331 326 323 322 320 317 316 315 314 311 305 302 297 297 299 302 303 301 304 302 299 292 279 266 266 274 273 268 267 270 275 277 280 278 278 278 277 273 246 230 238 240 241 241 241 245 240 234 234 239 245 243 243 238 237 235 234 234 230 219 219 218 219 220 220 220 216 209 202 198 190 186 183 188 188 182 186 182 184 184 181
322 318 319 326 326 321 319 318 315 313 314 311 306 300 301 301 302 301 300 298 295 296 297 296 299 301 295 287 275 262 256 257 258 264 269 272 275 278 275 263 266 263 257 238 232 238 241 244 246 247 245 246 236 230 231 243 245 245 241 240 239 234 231 226 221 220 217 218 217 215 204 204 196 192 190 191 190 188 179 182 181 181 178 179 177
318 315 315 318 319 314 310 306 305 307 306 305 303 302 301 301 300 300 298 297 296 296 295 298 300 298 297 293 290 279 259 253 259 261 263 266 265 263 249 247 249 255 246 252 245 240 238 239 242 245 248 250 249 245 226 238 240 243 244 241 239 234 231 227 221 217 213 210 210 201 197 199 193 190 187 190 192 190 183 170 171 168 173 162 156
314 313 311 315 316 314 309 303 303 306 308 308 305 303 302 301 300 300 299 299 299 300 300 301 298 296 297 296 301 301 298 283 274 269 267 265 257 238 228 237 239 237 246 241 239 232 233 242 250 250 250 250 251 250 249 244 241 238 236 236 233 233 228 224 219 216 211 206 201 197 191 189 186 184 186 190 186 179 171 164 170 168 161 161 168
317 313 314 318 319 315 311 308 307 309 309 310 310 309 305 304 303 302 300 298 297 297 297 295 294 294 293 296 299 303 301 298 297 294 290 286 277 269 254 239 230 229 233 239 245 248 244 240 247 253 252 251 251 248 247 247 244 242 236 233 229 229 222 218 213 207 202 201 195 184 183 177 172 177 180 176 167 163 164 159 158 158 160 163 163
318 316 315 317 315 313 312 309 306 304 306 311 312 312 307 304 299 297 296 298 299 298 296 293 291 290 292 295 297 301 298 296 293 294 293 290 285 282 273 263 253 249 244 238 239 241 249 249 251 254 254 252 250 250 248 246 245 242 240 233 229 224 219 213 206 199 197 190 177 165 164 162 156 158 157 162 157 156 151 156 156 155 153 145 137
315 313 312 312 311 310 307 305 303 302 301 300 300 300 300 300 301 302 301 296 292 291 289 290 289 291 295 293 292 292 291 292 291 289 288 288 286 284 280 274 265 259 254 251 250 248 250 252 250 251 253 254 252 251 249 247 243 241 238 232 224 222 216 206 196 193 184 170 165 158 159 149 155 160 164 155 137 140 138 132 130 130 127 129 133
314 313 313 313 314 311 309 309 309 307 302 300 299 300 302 302 301 296 292 292 291 290 291 290 290 290 290 288 286 287 289 290 290 288 285 282 284 285 282 278 274 267 262 259 256 255 252 250 249 248 248 249 251 250 248 246 242 239 234 224 221 212 201 194 189 183 180 178 171 171 166 162 155 146 140 137 141 140 135 139 137 136 137 140 140
313 312 312 311 312 312 313 310 308 307 306 303 300 299 296 294 292 295 293 293 295 296 295 292 291 293 295 294 292 293 291 291 289 287 284 281 280 284 286 284 281 276 269 264 260 256 255 253 251 249 246 247 248 247 243 240 236 230 225 220 212 204 194 183 171 168 172 169 165 156 154 147 141 133 138 140 138 137 141 140 139 137 137 138 138
312 312 311 310 310 309 306 305 305 304 303 300 298 296 295 294 294 295 295 296 298 298 299 303 306 305 302 298 294 289 286 289 288 291 297 296 291 284 285 288 287 285 280 275 268 262 257 254 252 251 251 249 251 251 247 243 232 225 215 208 202 194 184 176 177 176 171 166 156 150 148 142 137 137 138 137 141 139 142 141 141 141 138 138 131
313 314 312 311 308 305 304 303 303 300 299 298 298 298 298 298 297 301 306 308 306 304 302 300 299 296 294 290 289 298 300 295 289 289 290 294 298 300 299 297 297 305 313 314 310 298 281 265 253 249 248 249 246 247 243 238 225 217 212 198 192 186 187 182 178 167 160 153 148 141 143 143 141 142 142 142 142 141 139 145 138 133 132 135 128
317 313 309 305 303 301 302 303 302 299 297 297 299 301 303 303 303 303 301 299 299 298 298 297 296 298 301 302 297 292 295 310 316 315 313 312 306 304 303 302 303 303 300 299 305 305 299 296 298 300 289 277 249 237 222 220 211 205 200 195 185 182 163 148 142 144 147 148 145 145 143 141 133 133 132 129 120 116 110 109 114 125 131 130 119
315 310 309 307 307 305 304 304 303 303 307 309 308 305 302 299 299 298 297 299 303 305 304 301 300 299 300 302 311 317 314 308 304 302 298 297 296 294 296 300 304 303 301 298 295 293 289 279 265 257 254 244 228 217 185 153 166 157 161 156 150 134 141 140 138 140 140 137 134 134 137 133 123 121 120 116 105 118 117 124 127 126 125 121 122
311 309 308 307 304 302 301 304 305 308 306 304 303 302 301 302 302 303 306 306 304 300 299 302 306 307 304 302 301 301 300 296 293 292 296 296 296 298 299 298 295 296 300 301 298 290 282 274 272 269 262 237 203 181 120 66 50 55 72 103 123 137 133 130 129 121 123 127 128 125 127 128 114 109 114 113 115 121 119 120 106 93 103 105 104
313 311 307 304 302 305 308 310 308 306 305 305 303 302 303 303 303 302 300 299 300 301 304 304 303 302 301 301 301 300 299 297 295 296 295 293 293 292 293 294 297 299 302 301 300 300 296 290 303 310 342 100 83 78 86 75 73 81 88 94 119 126 129 126 123 124 122 119 114 115 118 122 121 120 109 108 101 89 89 90 95 101 96 97 105
311 310 308 309 310 310 309 307 306 304 305 305 305 305 305 303 303 302 302 302 302 302 302 302 301 301 301 301 301 300 299 298 298 297 298 298 298 299 299 299 298 298 303 304 304 309 319 24 39 56 60 67 73 76 75 68 71 75 69 89 96 93 91 94 104 109 107 109 112 112 116 116 114 107 96 99 99 101 101 106 107 106 116 119 128
311 311 311 310 309 308 308 307 306 307 306 305 304 303 303 304 303 303 303 303 303 304 303 302 301 302 302 301 301 300 300 300 300 298 296 295 294 293 292 291 296 309 315 304 315 4 51 61 73 64 75 86 87 79 79 83 81 91 95 90 85 82 78 77 78 84 88 89 98 96 100 105 107 103 103 99 102 103 103 105 111 117 122 130 139